Regional Weather Roundup
Issued by NWS

Home | Current Version | Previous Version | Text Only | Print | Product List | Glossary On
Versions: 1 2 3 4 5 6 7 8 9 10 11 12 13 14 15 16 17 18 19 20 21 22 23 24 25 26 27 28 29 30 31 32 33 34 35 36 37 38 39 40 41 42 43 44 45 46 47 48 49 50
000
ASPQ40 PGUM 182012
RWRPQ
WEATHER ROUNDUP FOR THE MARIANAS AND MICRONESIA
NATIONAL WEATHER SERVICE TIYAN GU
600 AM CHST FRI DEC 19 2014

GUZ001>004-182100-
MARIANA ISLANDS-

CITY           SKY/WX    TMP DP  RH WIND       PRES   REMARKS
GUAM AIRPORT   CLEAR     79  73  83 NE14      29.92R
ANDERSEN AFB   PTCLDY    79  73  83 NE25      29.93R
ROTA AIRPORT   NOT AVBL
TINIAN AP      PTCLDY    79  73  83 NE13      29.93
SAIPAN AP      PTCLDY    79  72  78 NE14G24   29.94R

$$

PMZ161-182100-
REPUBLIC OF PALAU-

CITY           SKY/WX    TMP DP  RH WIND       PRES   REMARKS
KOROR AP       MOCLDY    82  77  83 E10G16    29.81R HX  91
KOROR WSO      CLOUDY    81  77  89 E6        29.80S

$$

PMZ171>174-182100-
FEDERATED STATES OF MICRONESIA-

CITY           SKY/WX    TMP DP  RH WIND       PRES   REMARKS
YAP AIRPORT    CLOUDY    81  75  83 VRB7      29.82R
CHUUK AP       CLOUDY    82  77  83 E8        29.80R HX  91
POHNPEI AP     NOT AVBL
POHNPEI WSO    PTCLDY    75  75 100 SE3       29.85
KOSRAE AP      NOT AVBL

$$

PMZ181-182100-
REPUBLIC OF THE MARSHALL ISLANDS-

CITY           SKY/WX    TMP DP  RH WIND       PRES   REMARKS
KWAJALEIN AP   PTSUNNY   82  75  78 NE16      29.85R
MAJURO AP      NOT AVBL
MAJURO WSO     PTSUNNY   82  77  83 E12       29.81R HX  91

$$



USA.gov is the U.S. government's official web portal to all federal, state and local government web resources and services.